Weather History for FBMN - November, 2013

Change the Weather History Date:

Monday, November 4, 2013

  Actual Average Record
Temperature  
Mean Temperature 81 °F -  
Max Temperature 93 °F 91 °F 104 °F (2005)
Min Temperature 69 °F 69 °F 61 °F (2012)
Cooling Degree Days 16    
Growing Degree Days 31 (Base 50)    
Moisture  
Dew Point 50 °F    
Average Humidity 38    
Maximum Humidity 64    
Minimum Humidity 17    
Precipitation  
Precipitation 0.00 in - - ()
Sea Level Pressure  
Sea Level Pressure 30.06 in    
Wind  
Wind Speed 10 mph ()    
Max Wind Speed 14 mph    
Max Gust Speed -    
Visibility 6.2 miles    
Events      
Averages and records for this station are not official NWS values.
T = Trace of Precipitation, MM = Missing Value Source: Averaged Metar Reports

Daily Weather History Graph

Daily Weather History Graph

Search for Another Location

Airport or City:

Trip Planner

Search our weather history database for the weather conditions in past years. The results will help you decide how hot, cold, wet, or windy it might be!

Date:

Astronomy

Nov. 04, 2013 Rise Set
Actual Time 5:43 AM CAT 6:36 PM CAT
Civil Twilight 5:20 AM CAT 6:59 PM CAT
Nautical Twilight 4:52 AM CAT 7:27 PM CAT
Astronomical Twilight 4:25 AM CAT 7:54 PM CAT
Moon 6:20 AM CAT (11/4) 7:42 PM CAT (11/4)
Length of Visible Light 13h 39m
Length of Day
12h 53m
New Moon, 1% of the Moon is Illuminated
Nov 4
New Moon
Nov 10
First Quarter
Nov 17
Full
Nov 25
Last Quarter
Dec 3
New

Hourly Weather History & Observations

Time (CAT) Temp. Heat Index Dew Point Humidity Pressure Visibility Wind Dir Wind Speed Gust Speed Precip Events Conditions
12:00 AM 77.0 °F - 53.6 °F 44% 30.06 in - ESE 10.4 mph - N/A   Clear
1:00 AM 75.2 °F - 53.6 °F 47% 30.04 in - East 12.7 mph - N/A   Clear
2:00 AM 71.6 °F - 53.6 °F 53% 30.04 in - SE 8.1 mph - N/A   Clear
3:00 AM 73.4 °F - 55.4 °F 53% 30.04 in - ESE 10.4 mph - N/A   Clear
4:00 AM 71.6 °F - 55.4 °F 57% 30.06 in - SE 10.4 mph - N/A   Clear
5:00 AM 69.8 °F - 55.4 °F 60% 30.06 in - ESE 11.5 mph - N/A   Clear
6:00 AM 69.8 °F - 55.4 °F 60% 30.09 in - ESE 11.5 mph - N/A   Clear
7:00 AM 69.8 °F - 57.2 °F 64% 30.12 in - ESE 11.5 mph - N/A   Clear
8:00 AM 73 °F - 57 °F 48%  in 6 mi ESE 13.8 mph - -   Partly Cloudy
8:00 AM 73.4 °F - 57.2 °F 57% 30.15 in - ESE 13.8 mph - N/A   Clear
9:00 AM 77.0 °F - 59.0 °F 54% 30.15 in - East 12.7 mph - N/A   Clear
10:00 AM 82.4 °F 82.5 °F 59.0 °F 45% 30.15 in - ESE 11.5 mph - N/A   Clear
11:00 AM 86.0 °F 84.9 °F 57.2 °F 37% 30.12 in - East 11.5 mph - N/A   Clear
12:00 PM 87.8 °F 86.1 °F 55.4 °F 33% 30.09 in 6.2 mi NE 10.4 mph - N/A   Scattered Clouds
1:00 PM 91.4 °F - 44.6 °F 20% 30.06 in 6.2 mi ESE 11.5 mph - N/A   Scattered Clouds
2:00 PM 91.4 °F - 44.6 °F 20% 30.04 in 6.2 mi East 11.5 mph - N/A   Scattered Clouds
3:00 PM 91.4 °F - 46.4 °F 21% 30.01 in 6.2 mi East 9.2 mph - N/A   Scattered Clouds
4:00 PM 93.2 °F - 44.6 °F 19% 29.98 in 6.2 mi East 11.5 mph - N/A   Scattered Clouds
5:00 PM 93.2 °F - 42.8 °F 17% 29.98 in 6.2 mi East 10.4 mph - N/A   Scattered Clouds
6:00 PM 91.4 °F - 42.8 °F 18% 29.98 in 6.2 mi ESE 11.5 mph - N/A   Scattered Clouds
7:00 PM 87.8 °F - 42.8 °F 21% 30.01 in 6.2 mi ESE 9.2 mph - N/A   Partly Cloudy
8:00 PM 86.0 °F - 41.0 °F 20% 30.01 in 6.2 mi ESE 6.9 mph - N/A   Partly Cloudy
9:00 PM 82.4 °F - 41.0 °F 23% 30.04 in - SE 8.1 mph - N/A   Clear
10:00 PM 80.6 °F - 41.0 °F 24% 30.06 in - SE 6.9 mph - N/A   Clear
11:00 PM 80.6 °F - 41.0 °F 24% 30.06 in - East 8.1 mph - N/A   Clear